Regional Weather Roundup
Issued by NWS

Home | Current Version | Previous Version | Text Only | Print | Product List | Glossary Off
Versions: 1 2 3 4 5 6 7 8 9 10 11 12 13 14 15 16 17 18 19 20 21 22 23 24 25 26 27 28 29 30 31 32 33 34 35 36 37 38 39 40 41 42 43 44 45 46 47 48 49 50

198
ASUS43 KLSX 061110
RWRMO

WEATHER SUMMARY FOR MISSOURI
NATIONAL WEATHER SERVICE SPRINGFIELD MO
500 AM CST SAT FEB 06 2016

NOTE: "FAIR" INDICATES FEW OR NO CLOUDS BELOW 12,000 FEET WITH NO
       SIGNIFICANT WEATHER AND/OR OBSTRUCTIONS TO VISIBILITY.
       CURRENT SKY AND/OR WEATHER CONDITIONS ARE NOT AVAILABLE FOR
       CHILLICOTHE AND FARMINGTON.

MOZ001>031-035>038-043-044-053-054-061200-
...NORTHERN AND WESTERN MISSOURI...

CITY           SKY/WX    TMP DP  RH WIND       PRES   REMARKS
KANSAS CTY INT CLEAR     29  23  78 N5        30.25R WCI  24
KANSAS C DTWN  CLEAR     29  25  85 CALM      30.25S
LEE`S SUMMIT   PTCLDY    30  22  72 NW3       30.24S
ST JOSEPH      CLEAR     23  21  92 CALM      30.27R
CHILLICOTHE      N/A     26  22  84 CALM      30.27R
KIRKSVILLE     CLEAR     25  17  72 CALM      30.25S

$$
MOZ066>068-077>081-088>096-101>105-061200-
...SOUTHWEST MISSOURI...

CITY           SKY/WX    TMP DP  RH WIND       PRES   REMARKS
SPRINGFIELD    MOCLDY    29  17  61 S7        30.27R WCI  22
JOPLIN         PTCLDY    38  18  44 W5        30.30R

$$
MOZ032>034-039>042-045>050-055>058-069>072-061200-
...CENTRAL MISSOURI...

CITY           SKY/WX    TMP DP  RH WIND       PRES   REMARKS
COLUMBIA       MOCLDY    31  19  61 S7        30.25F WCI  24
JEFFERSON CITY PTCLDY    28  21  75 E6        30.28F WCI  22
ROLLA          CLOUDY    32  21  64 SW8       30.26S WCI  25
SEDALIA        CLEAR     35  20  54 S9        30.26S WCI  28
WHITEMAN AFB   CLEAR     31  21  68 SW8       30.23F WCI  23
WARRENSBURG    PTCLDY    32  23  69 S6        30.24S WCI  26
OSAGE BEACH    CLEAR     28  18  64 S3        30.27S

$$
MOZ051-052-059>065-061200-
...EAST CENTRAL MISSOURI...

CITY           SKY/WX    TMP DP  RH WIND       PRES   REMARKS
ST LOUIS INTL  PTCLDY    30  21  69 SE5       30.30F WCI  25
SPIRIT OF STL  CLEAR     25  21  85 CALM      30.29F
ST CHARLES     CLEAR     27  23  85 E6        30.30F WCI  20

$$
MOZ072>076-082>087-097>100-106>115-061200-
...SOUTH CENTRAL AND SOUTHEAST MISSOURI...

CITY           SKY/WX    TMP DP  RH WIND       PRES   REMARKS
CAPE GIRARDEAU CLEAR     25  22  88 CALM      30.33S
FARMINGTON     CLEAR     24  21  88 CALM      30.30R
POPLAR BLUFF   CLEAR     27  23  85 CALM      30.33S
WEST PLAINS    MOCLDY    33  14  45 SW3       30.30S

$$




USA.gov is the U.S. government's official web portal to all federal, state and local government web resources and services.